Home   Weather   Oulu   Past weeks

Flag for Finland Past Weather in Oulu, Finland — Yesterday and Last 2 Weeks

Now
34 °F

Light rain. Mostly cloudy.


Feels Like: 26 °F
Forecast: 27 / 39 °F
Wind: 10 mph from Northwest

Location: Oulu Airport

Current Time: Apr 27, 2017 at 4:34:12 pm

Latest Report: Apr 27, 2017 at 3:50 pm


Visibility: N/A

Pressure: 29.68 "Hg

Humidity: 87%

Dew Point: 30 °F

Location of OuluLocation

Past Weather in Oulu — Graph

°F

Oulu Temperature Yesterday

Maximum temperature yesterday: 39 °F (at 12:20 am)
Minimum temperature yesterday: 32 °F (at 8:50 am)
Average temperature yesterday: 34 °F

High & Low Weather Summary for the Past Weeks

 TemperatureHumidityPressure
High46 °F (Apr 25, 12:20 pm)100% (Apr 21, 8:20 pm)30.45 "Hg (Apr 21, 8:20 pm)
Low9 °F (Apr 14, 5:20 am)32% (Apr 17, 12:50 pm)29.09 "Hg (Apr 21, 11:20 pm)
Average31 °F73%29.75 "Hg
* Reported Apr 12 3:20 pm — Apr 27 3:20 pm, Oulu, Weather by CustomWeather, © 2017

Note: Actual official high and low records may vary slightly from our data, if they occured in-between our weather recording intervals... More about our weather records

Advertising

Oulu Weather History for the Previous 24 Hours

Scroll right to see more
 ConditionsComfort  
Time TempWeatherWind HumidityBarometerVisibility
3:20 pm
Thu, Apr 27
34 °FMostly cloudy.12 mph87%29.68 "HgN/A
2:50 pm34 °FOvercast.10 mph81%29.65 "HgN/A
2:20 pm34 °FOvercast.12 mph81%29.65 "HgN/A
1:50 pm34 °FLight snow. Overcast.10 mph81%29.62 "HgN/A
1:20 pm34 °FLight snow. Overcast.10 mph81%29.59 "HgN/A
12:50 pm34 °FLight snow. Mostly cloudy.12 mph87%29.59 "HgN/A
12:20 pm34 °FLight snow. Mostly cloudy.9 mph87%29.56 "HgN/A
11:50 am34 °FLight snow. More clouds than sun.10 mph87%29.56 "HgN/A
11:20 am34 °FLight snow. Low clouds.9 mph87%29.53 "HgN/A
10:50 am34 °FLight snow. Low clouds.7 mph87%29.50 "HgN/A
10:20 am32 °FLight snow. Overcast.10 mph93%29.50 "HgN/A
9:50 am34 °FLight snow. Overcast.12 mph87%29.47 "HgN/A
9:20 am32 °FLight snow. Overcast.10 mph93%29.47 "HgN/A
8:50 am32 °FOvercast.10 mph93%29.45 "HgN/A
8:20 am32 °FCloudy.12 mph93%29.45 "HgN/A
7:50 am32 °FLight snow. Cloudy.12 mph93%29.42 "HgN/A
7:20 am32 °FLight snow. Mostly cloudy.12 mph93%29.42 "Hg3 mi
6:50 am32 °FLight snow. Mostly cloudy.10 mph93%29.39 "Hg2 mi
6:20 am32 °FPartly sunny.10 mph93%29.39 "HgN/A
5:50 am32 °FPartly sunny.9 mph93%29.36 "HgN/A
5:20 am32 °FLight rain. Broken clouds.9 mph93%29.36 "HgN/A
4:50 am34 °FMostly cloudy.10 mph87%29.36 "HgN/A
4:20 am32 °FPartly cloudy.12 mph93%29.33 "HgN/A
3:50 am34 °FLight snow. Mostly cloudy.12 mph93%29.33 "HgN/A
3:20 am34 °FLight rain. Mostly cloudy.12 mph93%29.33 "HgN/A
2:50 am34 °FMostly cloudy.10 mph93%29.30 "HgN/A
2:20 am34 °FLight rain. Low clouds.10 mph93%29.30 "HgN/A
1:50 am34 °FLight rain. Mostly cloudy.9 mph93%29.27 "HgN/A
1:20 am34 °FLight rain. Mostly cloudy.12 mph93%29.27 "HgN/A
12:50 am34 °FLight rain. Mostly cloudy.12 mph93%29.27 "HgN/A
12:20 am34 °FLight rain. Mostly cloudy.12 mph93%29.24 "Hg5 mi
11:50 pm
Wed, Apr 26
34 °FLight rain. Mostly cloudy.12 mph93%29.24 "HgN/A
11:20 pm34 °FLight rain. Low clouds.13 mph93%29.24 "HgN/A
10:50 pm34 °FLight rain. Low clouds.12 mph93%29.21 "HgN/A
10:20 pm34 °FLight rain. Mostly cloudy.12 mph93%29.21 "HgN/A
9:50 pm34 °FDrizzle. Low clouds.12 mph93%29.21 "Hg6 mi
9:20 pm34 °FLight rain. Mostly cloudy.12 mph93%29.21 "HgN/A
8:50 pm34 °FLight rain. Mostly cloudy.12 mph93%29.21 "HgN/A
8:20 pm34 °FLight rain. Mostly cloudy.13 mph93%29.18 "HgN/A
7:50 pm34 °FLight rain. Low clouds.13 mph93%29.18 "Hg6 mi
7:20 pm34 °FLight rain. Mostly cloudy.13 mph93%29.18 "HgN/A
6:50 pm34 °FLight rain. Mostly cloudy.10 mph93%29.18 "HgN/A
6:20 pm34 °FLight rain. Mostly cloudy.12 mph93%29.21 "HgN/A
5:50 pm34 °FLight rain. Mostly cloudy.12 mph93%29.18 "HgN/A
5:20 pm34 °FLight rain. Mostly cloudy.10 mph93%29.18 "HgN/A
4:50 pm34 °FLight rain. Mostly cloudy.12 mph93%29.18 "HgN/A
4:20 pm34 °FLight rain. Mostly cloudy.10 mph93%29.21 "Hg4 mi
Weather by CustomWeather, © 2017

See weather overviewHow to use our weather pages